^^
Datos históricos de la estación: Murcia-Puente Tocinos
Diario Informe para Marzo 16, 2019 Unidades:  Inglés    Métrico   Ambas
Diario Semanal Mensual Anual Configurable
  Máximo: Mínimo: Media:
Temperatura: 79.2 °F 49.6 °F 63 °F
Punto de rocio: 48 °F 27.9 °F 37 °F
Humedad: 69% 16% 42%
Velocidad viento: 10mph 0mph 4.6mph
Racha viento: 17.3mph - -
Viento- - SSE
Presión: 30.2 in 30 in -
Precipitación: 0 in    
Historical Graphs
 
 
Tabla de datos para Marzo 16, 2019
Hora Temperatura Punto de rocio Presión Viento Velocidad viento Racha viento Humedad Intensidad lluvia(por hora) Nubes
00:00 57.7 °F 40.3 °F 30.2 in Calm     52% 0 in CLR
00:05 57.7 °F 39.7 °F 30.2 in Calm   2.4 mph 51% 0 in CLR
00:10 57.6 °F 39 °F 30.2 in Calm     50% 0 in CLR
00:15 57.7 °F 38.7 °F 30.2 in Calm     49% 0 in CLR
00:20 57.9 °F 38.3 °F 30.2 in Calm   5.8 mph 48% 0 in CLR
00:25 58.1 °F 37.9 °F 30.2 in Calm   3.6 mph 47% 0 in CLR
00:30 58.3 °F 38.1 °F 30.2 in SW 2.9 mph 4.6 mph 47% 0 in CLR
00:35 58.3 °F 38.1 °F 30.2 in SW 2.9 mph 3.6 mph 47% 0 in CLR
00:40 58.1 °F 37.9 °F 30.2 in SW 3.1 mph 4.6 mph 47% 0 in CLR
00:45 57.7 °F 37.6 °F 30.2 in SW 3.1 mph 4.6 mph 47% 0 in CLR
00:50 57.6 °F 37.6 °F 30.2 in SSW 3.1 mph 5.8 mph 47% 0 in CLR
00:55 57.6 °F 37.6 °F 30.2 in SSW 3.1 mph 6.9 mph 47% 0 in CLR
01:00 57.6 °F 37.4 °F 30.2 in SSW 5 mph 6 mph 47% 0 in CLR
01:05 57.4 °F 37.2 °F 30.2 in SSW 4.3 mph 5.8 mph 47% 0 in CLR
01:10 57.4 °F 37.2 °F 30.2 in SW 4.3 mph 6.9 mph 47% 0 in CLR
01:15 57.2 °F 37 °F 30.2 in SSW 4.3 mph 8.1 mph 47% 0 in CLR
01:20 57 °F 37 °F 30.2 in SW 5.2 mph 6.9 mph 47% 0 in CLR
01:25 57 °F 37 °F 30.2 in SSW 5.2 mph 5.8 mph 47% 0 in CLR
01:30 56.8 °F 37.2 °F 30.2 in SSW 4.7 mph 5.4 mph 48% 0 in CLR
01:35 56.7 °F 37.2 °F 30.2 in SSW 4.7 mph 5.8 mph 48% 0 in CLR
01:40 56.7 °F 37.2 °F 30.2 in SW 4 mph 4.6 mph 48% 0 in CLR
01:45 56.5 °F 37 °F 30.2 in SW 4 mph 5.8 mph 48% 0 in CLR
01:50 56.5 °F 37 °F 30.2 in WSW 3.6 mph 4.6 mph 48% 0 in CLR
01:55 56.5 °F 37 °F 30.2 in SW 3.6 mph 5.8 mph 48% 0 in CLR
02:00 56.5 °F 37 °F 30.2 in SW 3 mph 6 mph 48% 0 in CLR
02:05 56.3 °F 37.4 °F 30.2 in SSW 3.6 mph 4.6 mph 49% 0 in CLR
02:10 56.1 °F 37.2 °F 30.2 in South 3.6 mph 5.8 mph 49% 0 in CLR
02:15 55.9 °F 37 °F 30.2 in South 3.6 mph 5.9 mph 49% 0 in CLR
02:20 55.8 °F 36.9 °F 30.2 in SSW 4.3 mph 5.8 mph 49% 0 in CLR
02:25 55.8 °F 36.9 °F 30.2 in South 4.3 mph 6.9 mph 49% 0 in CLR
02:30 55.8 °F 36.9 °F 30.2 in SSW 4.7 mph 5.8 mph 49% 0 in CLR
02:35 55.6 °F 36.7 °F 30.2 in SSW 4.7 mph 5.8 mph 49% 0 in CLR
02:40 55.4 °F 36.5 °F 30.2 in SSW 4 mph 5.8 mph 49% 0 in CLR
02:45 55.2 °F 36.3 °F 30.2 in SSW 4 mph 4.6 mph 49% 0 in CLR
02:50 55.2 °F 36.3 °F 30.2 in SSW 3.6 mph 4.6 mph 49% 0 in CLR
02:55 55 °F 36.1 °F 30.2 in SSW 3.6 mph 5.8 mph 49% 0 in CLR
03:00 55 °F 36.1 °F 30.2 in SSW 3 mph 5 mph 49% 0 in CLR
03:05 54.9 °F 36 °F 30.2 in SW 3.1 mph 2.3 mph 49% 0 in CLR
03:10 54.9 °F 35.4 °F 30.2 in SW 2.4 mph 6.4 mph 48% 0 in CLR
03:15 54.9 °F 35.4 °F 30.2 in SW 2.4 mph 5.8 mph 48% 0 in CLR
03:20 54.7 °F 36 °F 30.2 in WSW 4 mph 6.9 mph 49% 0 in CLR
03:25 54.5 °F 35.8 °F 30.2 in SW 4 mph 5.8 mph 49% 0 in CLR
03:30 54.3 °F 36.1 °F 30.2 in WSW 4.3 mph 5.8 mph 50% 0 in CLR
03:35 54.1 °F 36 °F 30.2 in SW 4.3 mph 6.9 mph 50% 0 in CLR
03:40 54.1 °F 36 °F 30.2 in SW 4.7 mph 4.6 mph 50% 0 in CLR
03:45 54.1 °F 36 °F 30.2 in SW 4.7 mph 4.6 mph 50% 0 in CLR
03:50 54 °F 36.1 °F 30.2 in SSW 2.9 mph 4.7 mph 51% 0 in CLR
03:55 53.8 °F 36.1 °F 30.2 in South 2.9 mph 5.8 mph 51% 0 in CLR
04:00 53.4 °F 36.1 °F 30.2 in South 3 mph 6 mph 52% 0 in CLR
04:05 53.2 °F 36.5 °F 30.2 in SSE 3.6 mph 4.7 mph 53% 0 in CLR
04:10 52.9 °F 36.7 °F 30.2 in South 3.1 mph 5.8 mph 54% 0 in CLR
04:15 52.5 °F 36.9 °F 30.2 in South 3.1 mph 4.6 mph 55% 0 in CLR
04:20 52.3 °F 36.7 °F 30.2 in South 3.6 mph 3.5 mph 55% 0 in CLR
04:25 52.2 °F 36.5 °F 30.2 in South 3.6 mph 5.8 mph 55% 0 in CLR
04:30 52 °F 36.9 °F 30.2 in South 3.6 mph 4.6 mph 56% 0 in CLR
04:35 52 °F 36.9 °F 30.2 in South 3.6 mph 4.6 mph 56% 0 in CLR
04:40 51.6 °F 36.3 °F 30.2 in South 3.1 mph 4.7 mph 56% 0 in CLR
04:45 51.6 °F 36.3 °F 30.2 in South 3.1 mph 4.6 mph 56% 0 in CLR
04:50 51.4 °F 36.3 °F 30.2 in South 3.6 mph 4.6 mph 56% 0 in CLR
04:55 51.4 °F 36.3 °F 30.2 in South 3.6 mph 5.8 mph 56% 0 in CLR
05:00 51.4 °F 36.3 °F 30.2 in SSE 3 mph 6 mph 56% 0 in CLR
05:05 51.3 °F 36.1 °F 30.2 in SSE 3.6 mph 5.8 mph 56% 0 in CLR
05:10 51.1 °F 36 °F 30.2 in SSE 4.3 mph 8.1 mph 56% 0 in CLR
05:15 50.7 °F 36 °F 30.2 in SSE 4.3 mph 5.8 mph 57% 0 in CLR
05:20 50.5 °F 36 °F 30.2 in SSE 5.2 mph 6.9 mph 57% 0 in CLR
05:25 50.5 °F 36 °F 30.2 in South 5.2 mph 6.9 mph 57% 0 in CLR
05:30 50.5 °F 35.4 °F 30.2 in SSE 4.7 mph 8.1 mph 56% 0 in CLR
05:35 50.5 °F 35.4 °F 30.2 in South 4.7 mph 6.9 mph 56% 0 in CLR
05:40 50.7 °F 35.6 °F 30.2 in South 5.2 mph 9.2 mph 56% 0 in CLR
05:45 50.7 °F 35.1 °F 30.2 in South 5.2 mph 5.8 mph 55% 0 in CLR
05:50 50.9 °F 35.2 °F 30.2 in South 4.7 mph 6.2 mph 55% 0 in CLR
05:55 51.1 °F 35.4 °F 30.2 in SSW 4.7 mph 5.8 mph 55% 0 in CLR
06:00 51.1 °F 35.4 °F 30.2 in SSW 5 mph 6 mph 55% 0 in CLR
06:05 51.3 °F 35.2 °F 30.2 in South 4 mph 5.2 mph 54% 0 in CLR
06:10 51.3 °F 35.2 °F 30.2 in SSW 4 mph 6.2 mph 54% 0 in CLR
06:15 51.4 °F 35.2 °F 30.2 in South 4 mph 4.6 mph 54% 0 in CLR
06:20 51.4 °F 35.2 °F 30.2 in SSW 4 mph 5.8 mph 54% 0 in CLR
06:25 51.3 °F 35.2 °F 30.2 in SSW 4 mph 4.6 mph 54% 0 in CLR
06:30 51.3 °F 35.2 °F 30.2 in SSW 3.6 mph 4.6 mph 54% 0 in CLR
06:35 51.3 °F 35.2 °F 30.2 in SSW 3.6 mph 4.6 mph 54% 0 in CLR
06:40 51.4 °F 35.2 °F 30.2 in South 3.6 mph 3.5 mph 54% 0 in CLR
06:45 51.3 °F 35.2 °F 30.2 in South 3.6 mph 4.6 mph 54% 0 in CLR
06:50 51.1 °F 35.4 °F 30.2 in South 3.1 mph 5.9 mph 55% 0 in CLR
06:55 50.7 °F 35.1 °F 30.2 in South 3.1 mph 5.8 mph 55% 0 in CLR
07:00 50.7 °F 35.1 °F 30.2 in South 5 mph 7 mph 55% 0 in CLR
07:05 50.5 °F 35.1 °F 30.2 in South 4.3 mph 5.8 mph 55% 0 in CLR
07:10 50.5 °F 35.4 °F 30.2 in South 4.3 mph 6.9 mph 56% 0 in CLR
07:15 50.5 °F 35.4 °F 30.2 in SSE 4.3 mph 6.9 mph 56% 0 in CLR
07:20 50.4 °F 34.9 °F 30.2 in SSE 5.2 mph 6.9 mph 55% 0 in CLR
07:25 50.2 °F 35.1 °F 30.2 in SSE 5.2 mph 6.9 mph 56% 0 in CLR
07:30 50 °F 34.9 °F 30.2 in SSE 5.4 mph 8.1 mph 56% 0 in CLR
07:35 49.6 °F 35.1 °F 30.2 in SSE 5.4 mph 6.9 mph 57% 0 in CLR
07:40 49.6 °F 35.1 °F 30.2 in South 5.4 mph 6.9 mph 57% 0 in CLR
07:45 49.8 °F 35.2 °F 30.2 in South 5.4 mph 6.9 mph 57% 0 in CLR
07:50 50 °F 35.4 °F 30.2 in SSW 5.2 mph 6.9 mph 57% 0 in CLR
07:55 50.2 °F 35.1 °F 30.2 in SSW 5.2 mph 5.9 mph 56% 0 in CLR
08:00 50.4 °F 35.2 °F 30.2 in South 5 mph 7 mph 56% 0 in CLR
08:05 50.7 °F 35.1 °F 30.2 in South 4.7 mph 6.9 mph 55% 0 in CLR
08:10 51.1 °F 35.4 °F 30.2 in South 4.7 mph 5.8 mph 55% 0 in CLR
08:15 51.4 °F 35.2 °F 30.2 in South 4.7 mph 5.2 mph 54% 0 in CLR
08:20 51.6 °F 35.1 °F 30.2 in South 4 mph 5.8 mph 53% 0 in CLR
08:25 52 °F 35.4 °F 30.2 in SSW 4 mph 5.9 mph 53% 0 in CLR
08:30 52.3 °F 35.2 °F 30.2 in SSW 4 mph 5.8 mph 52% 0 in CLR
08:35 52.5 °F 35.4 °F 30.2 in SW 4 mph 5.8 mph 52% 0 in CLR
08:40 52.7 °F 35.6 °F 30.2 in South 4 mph 5.8 mph 52% 0 in CLR
08:45 53.1 °F 35.4 °F 30.2 in SSW 4 mph 6.9 mph 51% 0 in CLR
08:50 53.1 °F 34.9 °F 30.2 in SSW 5.2 mph 7.4 mph 50% 0 in CLR
08:55 53.2 °F 35.1 °F 30.2 in SSW 5.2 mph 6.9 mph 50% 0 in CLR
09:00 53.4 °F 35.2 °F 30.2 in SSW 6 mph 8 mph 50% 0 in CLR
09:05 53.8 °F 35.6 °F 30.2 in SSW 5.4 mph 7.4 mph 50% 0 in CLR
09:10 54.1 °F 35.4 °F 30.2 in SSW 5.2 mph 5.9 mph 49% 0 in CLR
09:15 54.7 °F 36 °F 30.2 in South 5.2 mph 4.6 mph 49% 0 in CLR
09:20 55 °F 36.1 °F 30.2 in SSW 4.3 mph 5.8 mph 49% 0 in CLR
09:25 55.6 °F 36.1 °F 30.2 in South 4.3 mph 5.4 mph 48% 0 in CLR
09:30 55.9 °F 36 °F 30.2 in SSE 4.7 mph 5.8 mph 47% 0 in CLR
09:35 56.5 °F 36 °F 30.2 in South 4.7 mph 5.8 mph 46% 0 in CLR
09:40 57 °F 36.3 °F 30.2 in SSE 4 mph 4.6 mph 46% 0 in CLR
09:45 57.6 °F 36.3 °F 30.2 in SW 4 mph 5.4 mph 45% 0 in CLR
09:50 57.9 °F 36.1 °F 30.2 in SSW 3.6 mph 4.7 mph 44% 0 in CLR
09:55 58.5 °F 36 °F 30.2 in SSW 3.6 mph 5.8 mph 43% 0 in CLR
10:00 58.6 °F 36.1 °F 30.2 in SSW 3 mph 6 mph 43% 0 in CLR
10:05 59.2 °F 36.1 °F 30.2 in SSW 3.6 mph 6.9 mph 42% 0 in CLR
10:10 59.5 °F 35.8 °F 30.2 in South 4 mph 5.8 mph 41% 0 in CLR
10:15 60.1 °F 36.3 °F 30.2 in SW 4 mph 5.8 mph 41% 0 in CLR
10:20 60.4 °F 36 °F 30.2 in SSW 4 mph 4.6 mph 40% 0 in CLR
10:25 61 °F 36.5 °F 30.2 in SW 4 mph 4.6 mph 40% 0 in CLR
10:30 61.3 °F 36.1 °F 30.2 in SW 2.9 mph 4.7 mph 39% 0 in CLR
10:35 62.2 °F 36.3 °F 30.2 in SSW 2.9 mph 4.6 mph 38% 0 in CLR
10:40 63 °F 36.3 °F 30.2 in SSW 2.4 mph 3.5 mph 37% 0 in CLR
10:45 63.5 °F 36 °F 30.2 in SSW 2.4 mph 3.5 mph 36% 0 in CLR
10:50 63.9 °F 35.8 °F 30.2 in SW 2.9 mph 5.8 mph 35% 0 in CLR
10:55 64.4 °F 36.1 °F 30.2 in SE 2.9 mph 3.5 mph 35% 0 in CLR
11:00 64.6 °F 35.6 °F 30.2 in SSE 3 mph 6 mph 34% 0 in CLR
11:05 65.1 °F 36 °F 30.2 in SW 3.1 mph 4.6 mph 34% 0 in CLR
11:10 65.7 °F 36.5 °F 30.2 in SW 2.4 mph 4.6 mph 34% 0 in CLR
11:15 66 °F 36.1 °F 30.2 in SSW 2.4 mph 4.6 mph 33% 0 in CLR
11:20 66.6 °F 36.5 °F 30.2 in South 2.9 mph 2.3 mph 33% 0 in CLR
11:25 66.9 °F 36.9 °F 30.2 in SSW 2.9 mph 2.3 mph 33% 0 in CLR
11:30 67.5 °F 36.7 °F 30.2 in SW 2 mph 4.6 mph 32% 0 in CLR
11:35 68.2 °F 36.3 °F 30.2 in SSW 2 mph 4 mph 31% 0 in CLR
11:40 68.5 °F 36.7 °F 30.2 in ESE 2.4 mph 4.6 mph 31% 0 in CLR
11:45 69.4 °F 36.7 °F 30.2 in South 2.4 mph 4.6 mph 30% 0 in CLR
11:50 70 °F 37 °F 30.2 in SE 2.4 mph 3.5 mph 30% 0 in CLR
11:55 70.5 °F 36.7 °F 30.2 in ENE 2.4 mph 3.5 mph 29% 0 in CLR
12:00 70.7 °F 36.9 °F 30.2 in East 2 mph 5 mph 29% 0 in CLR
12:05 70.5 °F 36.7 °F 30.2 in ENE 2.4 mph 4.6 mph 29% 0 in CLR
12:10 70.7 °F 36 °F 30.2 in North 2.9 mph 4.6 mph 28% 0 in CLR
12:15 70.9 °F 36.1 °F 30.2 in WSW 2.9 mph 2.3 mph 28% 0 in CLR
12:20 71.2 °F 36.3 °F 30.2 in NNE 2 mph 4.6 mph 28% 0 in CLR
12:25 71.6 °F 36.9 °F 30.2 in North 2 mph 3.5 mph 28% 0 in CLR
12:30 71.8 °F 36.9 °F 30.2 in North 2.4 mph 2.3 mph 28% 0 in CLR
12:35 72.1 °F 37.2 °F 30.1 in North 2.4 mph 2.3 mph 28% 0 in CLR
12:40 72.7 °F 36.9 °F 30.1 in North 1.4 mph 3.5 mph 27% 0 in CLR
12:45 73.8 °F 37.8 °F 30.1 in North 1.4 mph   27% 0 in CLR
12:50 74.5 °F 38.3 °F 30.1 in East 1.4 mph 3.5 mph 27% 0 in CLR
12:55 74.7 °F 38.5 °F 30.1 in NW 1.4 mph 5.8 mph 27% 0 in CLR
13:00 74.5 °F 38.3 °F 30.1 in NNW 3 mph 6 mph 27% 0 in CLR
13:05 74.5 °F 38.3 °F 30.1 in NNE 3.1 mph 3.6 mph 27% 0 in CLR
13:10 74.8 °F 37.6 °F 30.1 in NNW 2.9 mph 4.6 mph 26% 0 in CLR
13:15 75 °F 36.9 °F 30.1 in East 2.9 mph 4 mph 25% 0 in CLR
13:20 75.6 °F 38.1 °F 30.1 in ENE 2.9 mph 5.8 mph 26% 0 in CLR
13:25 75.9 °F 37.6 °F 30.1 in NE 2.9 mph 6.9 mph 25% 0 in CLR
13:30 75.9 °F 37.6 °F 30.1 in NNE 4.3 mph 5.8 mph 25% 0 in CLR
13:35 76.1 °F 36.7 °F 30.1 in NE 4.3 mph 5.8 mph 24% 0 in CLR
13:40 76.3 °F 36.9 °F 30.1 in North 4 mph 5.8 mph 24% 0 in CLR
13:45 77 °F 37.4 °F 30.1 in NW 4 mph 2.9 mph 24% 0 in CLR
13:50 77.4 °F 36.7 °F 30.1 in NE 2.4 mph 9.7 mph 23% 0 in CLR
13:55 77.5 °F 35.8 °F 30.1 in NNE 2.4 mph 9.2 mph 22% 0 in CLR
14:00 77.5 °F 34.5 °F 30.1 in ENE 5 mph 9 mph 21% 0 in CLR
14:05 78.1 °F 35.1 °F 30.1 in ENE 4.3 mph 11.4 mph 21% 0 in CLR
14:10 78.1 °F 33.6 °F 30.1 in East 3.6 mph 8.1 mph 20% 0 in CLR
14:15 78.1 °F 29.7 °F 30.1 in ESE 3.6 mph 10.4 mph 17% 0 in CLR
14:20 78.4 °F 31.5 °F 30.1 in ESE 5.9 mph 9.2 mph 18% 0 in CLR
14:25 78.4 °F 30 °F 30.1 in ESE 5.9 mph 6.9 mph 17% 0 in CLR
14:30 78.6 °F 30 °F 30.1 in ESE 5.9 mph 11.5 mph 17% 0 in CLR
14:35 79 °F 30.4 °F 30.1 in East 5.9 mph 9.2 mph 17% 0 in CLR
14:40 79 °F 30.4 °F 30.1 in ESE 5.9 mph 13.8 mph 17% 0 in CLR
14:45 79 °F 28.9 °F 30.1 in ESE 5.9 mph 9.2 mph 16% 0 in CLR
14:50 79.2 °F 32 °F 30.1 in SE 7.6 mph 10.4 mph 18% 0 in CLR
14:55 79 °F 31.8 °F 30.1 in ESE 7.6 mph 12.7 mph 18% 0 in CLR
15:00 78.6 °F 30 °F 30.1 in SE 9 mph 13 mph 17% 0 in CLR
15:05 78.6 °F 32.9 °F 30.1 in ESE 8.7 mph 11.4 mph 19% 0 in CLR
15:10 78.6 °F 32.9 °F 30.1 in ESE 8.1 mph 16.1 mph 19% 0 in CLR
15:15 78.4 °F 31.5 °F 30.1 in ESE 8.1 mph 10.4 mph 18% 0 in CLR
15:20 78.6 °F 32.9 °F 30.1 in ESE 8.5 mph 16.1 mph 19% 0 in CLR
15:25 78.4 °F 36.3 °F 30.1 in ESE 8.5 mph 16.1 mph 22% 0 in CLR
15:30 78.3 °F 37.4 °F 30.1 in ESE 9.7 mph 10.4 mph 23% 0 in CLR
15:35 78.4 °F 38.7 °F 30 in ESE 9.7 mph 11.8 mph 24% 0 in CLR
15:40 78.3 °F 39.6 °F 30 in ESE 8.1 mph 13.8 mph 25% 0 in CLR
15:45 77.7 °F 39 °F 30 in SE 8.1 mph 15 mph 25% 0 in CLR
15:50 77.7 °F 37.9 °F 30 in ESE 10 mph 10.4 mph 24% 0 in CLR
15:55 78.1 °F 38.3 °F 30 in ESE 10 mph 11.5 mph 24% 0 in CLR
16:00 78.1 °F 37.2 °F 30 in ESE 8 mph 13 mph 23% 0 in CLR
16:05 78.1 °F 37.2 °F 30 in SE 8.5 mph 13.8 mph 23% 0 in CLR
16:10 78.3 °F 37.4 °F 30 in SE 8.5 mph 15 mph 23% 0 in CLR
16:15 77.9 °F 37 °F 30 in ESE 8.5 mph 13.8 mph 23% 0 in CLR
16:20 78.1 °F 37.2 °F 30 in SE 8.7 mph 13.8 mph 23% 0 in CLR
16:25 77.7 °F 35.8 °F 30 in ESE 8.7 mph 16.1 mph 22% 0 in CLR
16:30 77.7 °F 35.8 °F 30 in East 9.7 mph 15 mph 22% 0 in CLR
16:35 77.5 °F 35.8 °F 30 in ESE 9.7 mph 15 mph 22% 0 in CLR
16:40 77.5 °F 35.8 °F 30 in ESE 9.7 mph 15 mph 22% 0 in CLR
16:45 77.5 °F 35.8 °F 30 in ESE 9.7 mph 11.5 mph 22% 0 in CLR
16:50 77.5 °F 35.8 °F 30 in ESE 9.2 mph 11.5 mph 22% 0 in CLR
16:55 77.7 °F 34.7 °F 30 in SE 9.2 mph 10.4 mph 21% 0 in CLR
17:00 77.5 °F 35.8 °F 30 in ESE 8 mph 16 mph 22% 0 in CLR
17:05 77 °F 35.2 °F 30 in ESE 8.5 mph 17.3 mph 22% 0 in CLR
17:10 76.6 °F 34.9 °F 30 in SE 10 mph 11.5 mph 22% 0 in CLR
17:15 76.8 °F 35.1 °F 30 in SE 10 mph 13.8 mph 22% 0 in CLR
17:20 76.8 °F 35.1 °F 30 in ESE 9.2 mph 11.5 mph 22% 0 in CLR
17:25 76.8 °F 35.1 °F 30 in SE 9.2 mph 13.8 mph 22% 0 in CLR
17:30 76.5 °F 36 °F 30 in SE 8.5 mph 10.4 mph 23% 0 in CLR
17:35 76.3 °F 35.8 °F 30 in SE 8.5 mph 12.7 mph 23% 0 in CLR
17:40 76.1 °F 35.6 °F 30 in East 8.5 mph 15 mph 23% 0 in CLR
17:45 75.9 °F 35.4 °F 30 in SE 8.5 mph 12.7 mph 23% 0 in CLR
17:50 75.6 °F 36.1 °F 30 in ESE 10 mph 15 mph 24% 0 in CLR
17:55 75.4 °F 36.1 °F 30 in East 10 mph 13.8 mph 24% 0 in CLR
18:00 75.2 °F 36 °F 30 in ESE 9 mph 14 mph 24% 0 in CLR
18:05 74.8 °F 35.6 °F 30 in SE 9.2 mph 16.1 mph 24% 0 in CLR
18:10 74.7 °F 36.5 °F 30 in SE 10 mph 13.8 mph 25% 0 in CLR
18:15 74.5 °F 36.3 °F 30 in SE 10 mph 12.7 mph 25% 0 in CLR
18:20 74.3 °F 36.1 °F 30 in SSE 9.2 mph 11.5 mph 25% 0 in CLR
18:25 73.8 °F 36.7 °F 30 in ESE 9.2 mph 11.5 mph 26% 0 in CLR
18:30 73.6 °F 36.7 °F 30 in ESE 7.6 mph 10.4 mph 26% 0 in CLR
18:35 73.2 °F 35.2 °F 30 in SE 7.6 mph 8.1 mph 25% 0 in CLR
18:40 73 °F 34.2 °F 30 in SE 6.4 mph 9.2 mph 24% 0 in CLR
18:45 73 °F 31.8 °F 30 in ESE 6.4 mph 12.3 mph 22% 0 in CLR
18:50 72.9 °F 31.8 °F 30 in ESE 6.2 mph 11.5 mph 22% 0 in CLR
18:55 72.3 °F 31.3 °F 30 in SE 6.2 mph 9.2 mph 22% 0 in CLR
19:00 72.1 °F 31.1 °F 30 in ESE 7 mph 11 mph 22% 0 in CLR
19:05 71.8 °F 29.7 °F 30 in SE 6.9 mph 8.1 mph 21% 0 in CLR
19:10 71.4 °F 29.5 °F 30 in ESE 6.2 mph 8.1 mph 21% 0 in CLR
19:15 71.1 °F 27.9 °F 30 in ESE 6.2 mph 7.6 mph 20% 0 in CLR
19:20 70.7 °F 28.8 °F 30 in ESE 5.4 mph 8.1 mph 21% 0 in CLR
19:25 70.5 °F 28.8 °F 30 in ESE 5.4 mph 8.7 mph 21% 0 in CLR
19:30 70.3 °F 29.7 °F 30 in ESE 5.9 mph 6.9 mph 22% 0 in CLR
19:35 70.3 °F 30.7 °F 30 in ESE 5.9 mph 8.1 mph 23% 0 in CLR
19:40 70 °F 31.5 °F 30 in ESE 5.4 mph 5.8 mph 24% 0 in CLR
19:45 69.6 °F 32.2 °F 30 in ENE 5.4 mph 3.6 mph 25% 0 in CLR
19:50 69.3 °F 33.8 °F 30 in NNW 3.1 mph 6.9 mph 27% 0 in CLR
19:55 68.4 °F 36.5 °F 30 in NNW 3.1 mph 6.9 mph 31% 0 in CLR
20:00 67.6 °F 37.4 °F 30 in NNE 3 mph 9 mph 33% 0 in CLR
20:05 66.6 °F 37.9 °F 30 in NE 3.6 mph 6.9 mph 35% 0 in CLR
20:10 66 °F 38.3 °F 30 in North 5.2 mph 6.9 mph 36% 0 in CLR
20:15 65.5 °F 38.5 °F 30 in ENE 5.2 mph 5.4 mph 37% 0 in CLR
20:20 65.1 °F 37.6 °F 30 in NE 4.7 mph 8.1 mph 36% 0 in CLR
20:25 64.9 °F 37.9 °F 30 in NNE 4.7 mph 8.1 mph 37% 0 in CLR
20:30 64.8 °F 38.5 °F 30 in North 5.4 mph 5.8 mph 38% 0 in CLR
20:35 64.4 °F 38.8 °F 30 in West 5.4 mph 8.1 mph 39% 0 in CLR
20:40 63.7 °F 39.6 °F 30 in North 4.7 mph 6.9 mph 41% 0 in CLR
20:45 63.3 °F 40.5 °F 30 in NNE 4.7 mph 4.6 mph 43% 0 in CLR
20:50 63 °F 40.6 °F 30 in NNE 3.6 mph 4.7 mph 44% 0 in CLR
20:55 62.4 °F 40.8 °F 30 in NNW 3.6 mph 4.6 mph 45% 0 in CLR
21:00 62.2 °F 41.2 °F 30 in North 2 mph 6 mph 46% 0 in CLR
21:05 61.9 °F 41.4 °F 30 in NW 2.9 mph 4.6 mph 47% 0 in CLR
21:10 61.7 °F 41.7 °F 30 in NE 2.9 mph 4.6 mph 48% 0 in CLR
21:15 61.3 °F 42.4 °F 30 in NE 2.9 mph 6.9 mph 50% 0 in CLR
21:20 61 °F 42.6 °F 30 in NNE 4.7 mph 8.1 mph 51% 0 in CLR
21:25 60.6 °F 43.9 °F 30 in NNE 4.7 mph 8.1 mph 54% 0 in CLR
21:30 60.3 °F 44.4 °F 30 in North 5.9 mph 8.1 mph 56% 0 in CLR
21:35 59.7 °F 44.4 °F 30.1 in NE 5.9 mph 8.1 mph 57% 0 in CLR
21:40 59.5 °F 45.1 °F 30.1 in North 4.7 mph 5.8 mph 59% 0 in CLR
21:45 59.2 °F 45.3 °F 30.1 in NNE 4.7 mph 6.9 mph 60% 0 in CLR
21:50 58.8 °F 45.3 °F 30.1 in NE 4.3 mph 5.8 mph 61% 0 in CLR
21:55 58.6 °F 45.7 °F 30.1 in NE 4.3 mph 6.2 mph 62% 0 in CLR
22:00 58.6 °F 46.4 °F 30.1 in NNE 3 mph 7 mph 64% 0 in CLR
22:05 58.5 °F 46.2 °F 30.1 in NE 3.6 mph 5.8 mph 64% 0 in CLR
22:10 58.5 °F 46.2 °F 30.1 in NNE 4 mph 5.8 mph 64% 0 in CLR
22:15 58.3 °F 46.6 °F 30.1 in NNE 4 mph 3.5 mph 65% 0 in CLR
22:20 58.3 °F 46.9 °F 30.1 in NNE 3.1 mph 2.3 mph 66% 0 in CLR
22:25 58.1 °F 46.8 °F 30.1 in NNE 3.1 mph 2.3 mph 66% 0 in CLR
22:30 58.3 °F 47.5 °F 30.1 in NE 1.8 mph 4.6 mph 67% 0 in CLR
22:35 58.3 °F 47.5 °F 30.1 in NE 1.8 mph 3.5 mph 67% 0 in CLR
22:40 58.3 °F 47.5 °F 30.1 in NE 2 mph 2.3 mph 67% 0 in CLR
22:45 58.3 °F 47.5 °F 30.1 in NE 2 mph 3.5 mph 67% 0 in CLR
22:50 58.3 °F 47.5 °F 30.1 in NE 1.8 mph 3.5 mph 67% 0 in CLR
22:55 58.3 °F 47.8 °F 30.1 in NE 1.8 mph 2.9 mph 68% 0 in CLR
23:00 58.3 °F 47.8 °F 30.1 in NE 2 mph 4 mph 68% 0 in CLR
23:05 58.1 °F 48 °F 30.1 in NE 1.8 mph 3.5 mph 69% 0 in CLR
23:10 58.1 °F 48 °F 30.1 in NE 2 mph 2.3 mph 69% 0 in CLR
23:15 57.9 °F 47.8 °F 30.1 in NE 2 mph 2.3 mph 69% 0 in CLR
23:20 57.9 °F 47.8 °F 30 in NE 1.8 mph 1.2 mph 69% 0 in CLR
23:25 57.7 °F 47.1 °F 30 in NE 1.8 mph 2.4 mph 68% 0 in CLR
23:30 57.7 °F 46.9 °F 30 in NE 1.8 mph 2.3 mph 67% 0 in CLR
23:35 57.4 °F 46.6 °F 30 in NE 1.8 mph 2.3 mph 67% 0 in CLR
23:40 57.4 °F 46 °F 30 in NE 1.4 mph 2.9 mph 66% 0 in CLR
23:45 57.2 °F 45.9 °F 30 in NE 1.4 mph 3.5 mph 66% 0 in CLR
23:50 57 °F 45.3 °F 30 in NE 2 mph 2.3 mph 65% 0 in CLR
23:55 57 °F 45.3 °F 30 in NE 2 mph 2.3 mph 65% 0 in CLR
Murcia-Puente Tocinos, España
Compliments of Weather Underground - 2.75 mb

La estación de MeteoMurcia.com, publica sus datos en los siguientes proyectos:

Weather Underground PWS IMURCIAP2 Meteoclimatic www.awekas.at

W3Counter
Web Analytics